Weather History for LEMD - February, 2012

Change the Weather History Date:

Monday, February 13, 2012

  Actual Average Record
Temperature  
Mean Temperature 36 °F -  
Max Temperature 46 °F 56 °F 64 °F (2005)
Min Temperature 26 °F 35 °F 26 °F (1999)
Degree Days  
Heating Degree Days 29    
Moisture  
Dew Point 19 °F    
Average Humidity 50    
Maximum Humidity 70    
Minimum Humidity 24    
Precipitation  
Precipitation 0.00 in 0.05 in - ()
Sea Level Pressure  
Sea Level Pressure 30.30 in    
Wind  
Wind Speed 12 mph ()    
Max Wind Speed 25 mph    
Max Gust Speed 38 mph    
Visibility 8.2 miles    
Events      
Averages and records for this station are not official NWS values.
T = Trace of Precipitation, MM = Missing Value Source: Averaged Metar Reports

Daily Weather History Graph

Daily Weather History Graph

Search for Another Location

Airport or City:

Trip Planner

Search our weather history database for the weather conditions in past years. The results will help you decide how hot, cold, wet, or windy it might be!

Date:

Astronomy

Feb. 13, 2012 Rise Set
Actual Time 8:11 AM CET 6:46 PM CET
Civil Twilight 7:43 AM CET 7:14 PM CET
Nautical Twilight 7:11 AM CET 7:46 PM CET
Astronomical Twilight 6:39 AM CET 8:18 PM CET
Moon 12:28 AM CET (2/13) 10:58 AM CET (2/13)
Length of Visible Light 11h 31m
Length of Day
10h 34m
Waning Gibbous, 64% of the Moon is Illuminated
Feb 13
Waning Gibbous
Feb 14
Last Quarter
Feb 21
New
Mar 1
First Quarter
Mar 8
Full

Hourly Weather History & Observations

Time (CET) Temp. Windchill Dew Point Humidity Pressure Visibility Wind Dir Wind Speed Gust Speed Precip Events Conditions
12:00 AM 28.4 °F 19.1 °F 12.2 °F 51% 30.30 in - NNE 10.4 mph - N/A   Clear
12:30 AM 28.4 °F 17.5 °F 12.2 °F 51% 30.30 in - NNE 13.8 mph - N/A   Clear
1:00 AM 29 °F - 11 °F 34% 30.43 in 19 mi North 13.8 mph - -  
1:00 AM 28.4 °F 18.0 °F 12.2 °F 51% 30.30 in - North 12.7 mph - N/A   Clear
1:30 AM 28.4 °F 19.7 °F 12.2 °F 51% 30.30 in - NNE 9.2 mph - N/A   Clear
2:00 AM 26.6 °F 21.2 °F 12.2 °F 55% 30.30 in - NNE 4.6 mph - N/A   Clear
2:30 AM 26.6 °F - 12.2 °F 55% 30.30 in - NE 2.3 mph - N/A   Clear
3:00 AM 26.6 °F 18.2 °F 12.2 °F 55% 30.30 in - NNE 8.1 mph - N/A   Clear
3:30 AM 26.6 °F 19.1 °F 12.2 °F 55% 30.30 in - NNE 6.9 mph - N/A   Clear
4:00 AM 28.4 °F 19.7 °F 12.2 °F 51% 30.30 in - NNE 9.2 mph - N/A   Clear
4:30 AM 26.6 °F 18.2 °F 12.2 °F 55% 30.30 in - NNE 8.1 mph - N/A   Clear
5:00 AM 26.6 °F 20.0 °F 12.2 °F 55% 30.30 in - NE 5.8 mph - N/A   Clear
5:30 AM 28.4 °F 20.4 °F 14.0 °F 55% 30.30 in - North 8.1 mph - N/A   Clear
6:00 AM 28.4 °F 18.5 °F 15.8 °F 59% 30.30 in - North 11.5 mph - N/A   Clear
6:30 AM 28.4 °F 17.5 °F 14.0 °F 55% 30.30 in - North 13.8 mph - N/A   Clear
7:00 AM 29 °F - 15 °F 41% 30.42 in 19 mi North 15.0 mph - -   Clear
7:00 AM 28.4 °F 17.5 °F 14.0 °F 55% 30.30 in - North 13.8 mph - N/A   Clear
7:30 AM 30.2 °F 19.3 °F 14.0 °F 51% 30.30 in - North 15.0 mph - N/A   Clear
8:00 AM 30.2 °F 20.2 °F 14.0 °F 51% 30.30 in - North 12.7 mph - N/A   Clear
8:30 AM 30.2 °F 19.8 °F 14.0 °F 51% 30.30 in - North 13.8 mph - N/A   Clear
9:00 AM 32.0 °F 22.5 °F 15.8 °F 51% 30.30 in - North 12.7 mph - N/A   Clear
9:30 AM 33.8 °F 23.9 °F 17.6 °F 52% 30.30 in - North 15.0 mph - N/A   Clear
10:00 AM 35.6 °F 25.5 °F 17.6 °F 48% 30.30 in - North 17.3 mph - N/A   Clear
10:30 AM 37.4 °F 28.2 °F 17.6 °F 45% 30.33 in - North 16.1 mph - N/A   Clear
11:00 AM 39.2 °F 29.8 °F 17.6 °F 42% 30.33 in - North 18.4 mph - N/A   Clear
11:30 AM 41.0 °F 32.5 °F 19.4 °F 42% 30.33 in - North 17.3 mph - N/A   Clear
12:00 PM 41.0 °F 32.5 °F 19.4 °F 42% 30.33 in 6.2 mi North 17.3 mph - N/A   Partly Cloudy
12:30 PM 42.8 °F 34.5 °F 21.2 °F 42% 30.33 in 6.2 mi North 18.4 mph - N/A   Partly Cloudy
1:00 PM 44 °F - 19 °F 24% 30.38 in 19 mi North 20.7 mph - -   Scattered Clouds
1:00 PM 42.8 °F 34.3 °F 21.2 °F 42% 30.33 in 6.2 mi North 19.6 mph - N/A   Partly Cloudy
1:30 PM 44.6 °F 36.6 °F 21.2 °F 39% 30.30 in 6.2 mi North 19.6 mph - N/A   Partly Cloudy
2:00 PM 44.6 °F 36.1 °F 21.2 °F 39% 30.30 in 6.2 mi North 21.9 mph - N/A   Partly Cloudy
2:30 PM 44.6 °F 36.4 °F 23.0 °F 43% 30.30 in 6.2 mi North 20.7 mph - N/A   Partly Cloudy
3:00 PM 44.6 °F 36.9 °F 23.0 °F 43% 30.30 in 6.2 mi North 18.4 mph - N/A   Partly Cloudy
3:30 PM 44.6 °F 35.9 °F 21.2 °F 39% 30.27 in 6.2 mi North 23.0 mph - N/A   Partly Cloudy
4:00 PM 44.6 °F 36.9 °F 21.2 °F 39% 30.27 in 6.2 mi North 18.4 mph - N/A   Partly Cloudy
4:30 PM 44.6 °F 36.9 °F 23.0 °F 43% 30.27 in 6.2 mi North 18.4 mph - N/A   Partly Cloudy
5:00 PM 44.6 °F 36.4 °F 23.0 °F 43% 30.27 in 6.2 mi North 20.7 mph 33.4 mph N/A   Partly Cloudy
5:30 PM 42.8 °F 33.1 °F 23.0 °F 46% 30.24 in 6.2 mi North 25.3 mph 38.0 mph N/A   Partly Cloudy
6:00 PM 41.0 °F 32.2 °F 23.0 °F 49% 30.27 in 6.2 mi North 18.4 mph - N/A   Partly Cloudy
6:30 PM 39.2 °F 29.6 °F 23.0 °F 52% 30.24 in 6.2 mi North 19.6 mph - N/A   Partly Cloudy
7:00 PM 39 °F - 22 °F 37% 30.34 in 19 mi North 11.5 mph - -   Scattered Clouds
7:00 PM 39.2 °F 32.5 °F 23.0 °F 52% 30.27 in 6.2 mi North 10.4 mph - N/A   Partly Cloudy
7:30 PM 39.2 °F 31.6 °F 23.0 °F 52% 30.27 in 6.2 mi North 12.7 mph - N/A   Partly Cloudy
8:00 PM 37.4 °F 29.8 °F 24.8 °F 60% 30.27 in - North 11.5 mph - N/A   Clear
8:30 PM 37.4 °F 29.8 °F 24.8 °F 60% 30.27 in - North 11.5 mph - N/A   Clear
9:00 PM 39.2 °F 30.8 °F 26.6 °F 61% 30.27 in 6.2 mi NNE 15.0 mph - N/A   Scattered Clouds
9:30 PM 39.2 °F 32.5 °F 26.6 °F 61% 30.27 in 6.2 mi NNE 10.4 mph - N/A   Scattered Clouds
10:00 PM 39.2 °F 32.0 °F 26.6 °F 61% 30.27 in 6.2 mi North 11.5 mph - N/A   Scattered Clouds
10:30 PM 37.4 °F 34.9 °F 26.6 °F 65% 30.27 in 6.2 mi North 3.5 mph - N/A   Partly Cloudy
11:00 PM 39.2 °F 35.0 °F 26.6 °F 61% 30.27 in 6.2 mi North 5.8 mph - N/A   Partly Cloudy
11:30 PM 35.6 °F 29.2 °F 26.6 °F 70% 30.27 in 6.2 mi NW 8.1 mph - N/A   Partly Cloudy